TTW517 RCTP-WBKK

Flight info

Callsign TTW517
Flight time 3h 8m
Altitude 34000
Route TINHO1D TINHO Q11 WAGON B591 JICHI Q11 POTIB M646 MELAN/N0462F360 M646 SANRO B591 LUBAN DCT TOKON DCT TIBOR DCT OSANU DCT VETAG VETAG1C
Aircraft A320/M-SDE3FGHIRWY/LB1

Departure

Time 2026-04-22 12:27
Airport Taiwan Taoyuan International Airport (RCTP)

Arrival

Time 2026-04-22 15:35
Airport Kota Kinabalu International Airport (WBKK)
Time Latitude Longitude Altitude Speed Heading
2026-04-22 12:05 25.08450 121.23776 101 ft 0 kts 126°
2026-04-22 12:13 25.08459 121.23763 99 ft 3 kts 125°
2026-04-22 12:13 25.08472 121.23742 101 ft 3 kts 127°
2026-04-22 12:13 25.08486 121.23723 101 ft 3 kts 131°
2026-04-22 12:14 25.08501 121.23703 100 ft 3 kts 128°
2026-04-22 12:14 25.08514 121.23683 100 ft 3 kts 116°
2026-04-22 12:14 25.08521 121.23661 100 ft 3 kts 72°
2026-04-22 12:14 25.08516 121.23650 100 ft 1 kts 49°
2026-04-22 12:15 25.08515 121.23649 100 ft 0 kts 49°
2026-04-22 12:20 25.08519 121.23654 100 ft 2 kts 49°
2026-04-22 12:20 25.08533 121.23671 99 ft 4 kts 49°
2026-04-22 12:20 25.08554 121.23698 101 ft 6 kts 49°
2026-04-22 12:21 25.08583 121.23735 101 ft 7 kts 49°
2026-04-22 12:21 25.08620 121.23782 100 ft 9 kts 49°
2026-04-22 12:21 25.08662 121.23835 101 ft 9 kts 43°
2026-04-22 12:21 25.08720 121.23830 101 ft 10 kts 321°
2026-04-22 12:22 25.08783 121.23823 101 ft 10 kts 32°
2026-04-22 12:22 25.08834 121.23884 100 ft 11 kts 49°
2026-04-22 12:22 25.08889 121.23955 100 ft 13 kts 49°
2026-04-22 12:22 25.08948 121.24030 99 ft 14 kts 49°
2026-04-22 12:23 25.09013 121.24112 101 ft 14 kts 49°
2026-04-22 12:23 25.09081 121.24199 101 ft 15 kts 49°
2026-04-22 12:23 25.09152 121.24290 101 ft 16 kts 49°
2026-04-22 12:23 25.09221 121.24378 100 ft 12 kts 49°
2026-04-22 12:24 25.09275 121.24446 99 ft 10 kts 45°
2026-04-22 12:24 25.09332 121.24439 101 ft 9 kts 320°
2026-04-22 12:24 25.09345 121.24426 101 ft 0 kts 319°
2026-04-22 12:25 25.09347 121.24425 101 ft 1 kts 319°
2026-04-22 12:25 25.09361 121.24411 101 ft 5 kts 319°
2026-04-22 12:25 25.09401 121.24373 101 ft 9 kts 319°
2026-04-22 12:26 25.09430 121.24326 101 ft 7 kts 267°
2026-04-22 12:26 25.09399 121.24280 101 ft 11 kts 229°
2026-04-22 12:26 25.09235 121.24072 100 ft 68 kts 229°
2026-04-22 12:26 25.08805 121.23526 101 ft 118 kts 229°
2026-04-22 12:27 25.08178 121.22730 102 ft 155 kts 229°
2026-04-22 12:27 25.07443 121.21795 500 ft 162 kts 229°
2026-04-22 12:27 25.06700 121.20853 1084 ft 162 kts 228°
2026-04-22 12:27 25.05967 121.19912 1684 ft 161 kts 229°
2026-04-22 12:28 25.05244 121.18983 2240 ft 158 kts 229°
2026-04-22 12:28 25.04540 121.18074 2738 ft 157 kts 228°
2026-04-22 12:28 25.03830 121.17157 3216 ft 157 kts 228°
2026-04-22 12:28 25.03326 121.16051 3453 ft 178 kts 259°
2026-04-22 12:29 25.03691 121.14630 3587 ft 217 kts 301°
2026-04-22 12:29 25.04913 121.13434 3746 ft 249 kts 316°
2026-04-22 12:29 25.06370 121.12314 4343 ft 256 kts 319°
2026-04-22 12:29 25.07866 121.11238 5095 ft 257 kts 320°
2026-04-22 12:30 25.10834 121.09104 6578 ft 256 kts 319°
2026-04-22 12:30 25.12325 121.08012 7303 ft 255 kts 319°
2026-04-22 12:30 25.13786 121.06926 8035 ft 255 kts 319°
2026-04-22 12:31 25.15256 121.05825 8775 ft 255 kts 318°
2026-04-22 12:31 25.16719 121.04720 9524 ft 254 kts 319°
2026-04-22 12:31 25.18331 121.03848 10182 ft 265 kts 339°
2026-04-22 12:31 25.20215 121.03717 10794 ft 280 kts
2026-04-22 12:32 25.22051 121.04482 11389 ft 294 kts 30°
2026-04-22 12:32 25.24807 121.07951 12577 ft 305 kts 49°
2026-04-22 12:32 25.26096 121.09820 13190 ft 307 kts 49°
2026-04-22 12:33 25.27397 121.11703 13760 ft 309 kts 49°
2026-04-22 12:33 25.28713 121.13602 14275 ft 311 kts 49°
2026-04-22 12:33 25.30038 121.15510 14781 ft 314 kts 48°
2026-04-22 12:33 25.31376 121.17431 15273 ft 316 kts 48°
2026-04-22 12:34 25.32707 121.19340 15769 ft 318 kts 48°
2026-04-22 12:34 25.34066 121.21293 16258 ft 321 kts 48°
2026-04-22 12:34 25.35411 121.23291 16721 ft 326 kts 56°
2026-04-22 12:34 25.36226 121.25656 17178 ft 333 kts 82°
2026-04-22 12:35 25.36132 121.28210 17607 ft 334 kts 108°
2026-04-22 12:35 25.35141 121.30465 18033 ft 329 kts 134°
2026-04-22 12:35 25.33447 121.32104 18398 ft 323 kts 152°
2026-04-22 12:35 25.31566 121.33480 18791 ft 325 kts 152°
2026-04-22 12:36 25.29660 121.34858 19190 ft 327 kts 152°
2026-04-22 12:36 25.27742 121.36242 19582 ft 329 kts 152°
2026-04-22 12:36 25.25820 121.37629 19976 ft 331 kts 152°
2026-04-22 12:36 25.23906 121.39014 20383 ft 333 kts 152°
2026-04-22 12:37 25.21957 121.40427 20789 ft 335 kts 152°
2026-04-22 12:37 25.19989 121.41855 21168 ft 338 kts 152°
2026-04-22 12:37 25.18018 121.43288 21553 ft 340 kts 151°
2026-04-22 12:37 25.16033 121.44730 21940 ft 342 kts 151°
2026-04-22 12:38 25.14059 121.46161 22294 ft 345 kts 151°
2026-04-22 12:38 25.12047 121.47620 22669 ft 346 kts 151°
2026-04-22 12:38 25.10026 121.49085 23036 ft 348 kts 151°
2026-04-22 12:38 25.07996 121.50556 23379 ft 350 kts 151°
2026-04-22 12:39 25.05947 121.52038 23684 ft 352 kts 151°
2026-04-22 12:39 25.01818 121.55018 24270 ft 356 kts 151°
2026-04-22 12:39 24.99747 121.56517 24552 ft 357 kts 151°
2026-04-22 12:40 24.97682 121.58011 24843 ft 359 kts 151°
2026-04-22 12:40 24.95586 121.59532 25142 ft 360 kts 151°
2026-04-22 12:40 24.93479 121.61052 25423 ft 362 kts 151°
2026-04-22 12:40 24.91364 121.62576 25705 ft 364 kts 151°
2026-04-22 12:41 24.89231 121.64117 25986 ft 366 kts 151°
2026-04-22 12:41 24.87095 121.65659 26271 ft 368 kts 151°
2026-04-22 12:41 24.84948 121.67208 26538 ft 370 kts 151°
2026-04-22 12:41 24.82814 121.68743 26813 ft 372 kts 151°
2026-04-22 12:42 24.80639 121.70308 27083 ft 373 kts 151°
2026-04-22 12:42 24.78461 121.71876 27359 ft 375 kts 150°
2026-04-22 12:42 24.76269 121.73457 27626 ft 377 kts 151°
2026-04-22 12:42 24.74065 121.75045 27878 ft 379 kts 151°
2026-04-22 12:43 24.71844 121.76645 28144 ft 381 kts 150°
2026-04-22 12:43 24.69610 121.78254 28411 ft 383 kts 150°
2026-04-22 12:43 24.67403 121.79841 28667 ft 385 kts 151°
2026-04-22 12:43 24.65144 121.81460 28916 ft 388 kts 151°
2026-04-22 12:44 24.62880 121.83081 29162 ft 390 kts 150°
2026-04-22 12:44 24.60592 121.84719 29415 ft 392 kts 150°
2026-04-22 12:44 24.58296 121.86362 29670 ft 395 kts 150°
2026-04-22 12:44 24.55978 121.88020 29919 ft 397 kts 150°
2026-04-22 12:45 24.53679 121.89665 30114 ft 400 kts 150°
2026-04-22 12:45 24.51341 121.91345 30324 ft 402 kts 150°
2026-04-22 12:45 24.49783 121.92464 30462 ft 403 kts 150°
2026-04-22 12:45 24.46622 121.94731 30750 ft 406 kts 150°
2026-04-22 12:46 24.44244 121.96429 30967 ft 408 kts 150°
2026-04-22 12:46 24.41874 121.98110 31147 ft 410 kts 153°
2026-04-22 12:46 24.40186 121.99118 31278 ft 409 kts 160°
2026-04-22 12:46 24.36653 122.00497 31557 ft 405 kts 172°
2026-04-22 12:47 24.33882 122.00994 31753 ft 401 kts 181°
2026-04-22 12:47 24.31105 122.01011 31954 ft 397 kts 190°
2026-04-22 12:47 24.28379 122.00569 32145 ft 394 kts 199°
2026-04-22 12:47 24.25740 121.99754 32322 ft 394 kts 202°
2026-04-22 12:48 24.23141 121.98899 32510 ft 396 kts 202°
2026-04-22 12:48 24.20490 121.98032 32705 ft 397 kts 202°
2026-04-22 12:48 24.17831 121.97165 32903 ft 399 kts 201°
2026-04-22 12:48 24.15160 121.96296 33086 ft 401 kts 201°
2026-04-22 12:49 24.12479 121.95424 33276 ft 402 kts 201°
2026-04-22 12:49 24.09787 121.94547 33439 ft 405 kts 201°
2026-04-22 12:49 24.07992 121.93963 33554 ft 406 kts 201°
2026-04-22 12:49 24.05277 121.93079 33735 ft 408 kts 201°
2026-04-22 12:50 24.01639 121.91893 33847 ft 413 kts 201°
2026-04-22 12:50 23.96957 121.90361 33847 ft 424 kts 201°
2026-04-22 12:51 23.91236 121.88498 33842 ft 438 kts 201°
2026-04-22 12:51 23.85296 121.86570 33839 ft 451 kts 201°
2026-04-22 12:52 23.78186 121.84268 33835 ft 462 kts 200°
2026-04-22 12:52 23.73006 121.82599 33830 ft 463 kts 200°
2026-04-22 12:53 23.66865 121.80614 33826 ft 463 kts 200°
2026-04-22 12:53 23.60677 121.78610 33825 ft 463 kts 200°
2026-04-22 12:54 23.54491 121.76614 33821 ft 463 kts 200°
2026-04-22 12:54 23.48298 121.74601 33823 ft 464 kts 200°
2026-04-22 12:55 23.42134 121.72603 33822 ft 464 kts 200°
2026-04-22 12:55 23.35924 121.70599 33819 ft 464 kts 200°
2026-04-22 12:56 23.29757 121.68617 33824 ft 464 kts 200°
2026-04-22 12:56 23.23539 121.66620 33820 ft 465 kts 200°
2026-04-22 12:57 23.17366 121.64636 33820 ft 465 kts 200°
2026-04-22 12:57 23.11143 121.62629 33822 ft 465 kts 200°
2026-04-22 12:58 23.04962 121.60643 33818 ft 465 kts 200°
2026-04-22 12:58 22.98750 121.58654 33819 ft 465 kts 200°
2026-04-22 12:59 22.92523 121.56658 33812 ft 465 kts 200°
2026-04-22 12:59 22.86347 121.54682 33813 ft 465 kts 200°
2026-04-22 13:00 22.80128 121.52704 33809 ft 465 kts 200°
2026-04-22 13:00 22.73923 121.50730 33809 ft 465 kts 200°
2026-04-22 13:01 22.67717 121.48745 33803 ft 464 kts 202°
2026-04-22 13:01 22.61733 121.46184 33799 ft 462 kts 206°
2026-04-22 13:02 22.55809 121.43570 34140 ft 462 kts 206°
2026-04-22 13:02 22.52829 121.42257 34459 ft 460 kts 206°
2026-04-22 13:02 22.49851 121.40945 34758 ft 459 kts 206°
2026-04-22 13:02 22.46935 121.39664 35041 ft 458 kts 206°
2026-04-22 13:03 22.43983 121.38370 35320 ft 458 kts 206°
2026-04-22 13:03 22.41029 121.37077 35591 ft 457 kts 206°
2026-04-22 13:03 22.38078 121.35784 35778 ft 457 kts 206°
2026-04-22 13:04 22.32179 121.33199 35828 ft 456 kts 206°
2026-04-22 13:04 22.26308 121.30624 35838 ft 456 kts 206°
2026-04-22 13:05 22.20422 121.28048 35850 ft 456 kts 206°
2026-04-22 13:05 22.14532 121.25475 35858 ft 456 kts 206°
2026-04-22 13:06 22.08648 121.22902 35875 ft 456 kts 206°
2026-04-22 13:06 22.02756 121.20324 35885 ft 456 kts 206°
2026-04-22 13:07 21.96860 121.17751 35890 ft 457 kts 206°
2026-04-22 13:07 21.91005 121.15207 35893 ft 457 kts 206°
2026-04-22 13:08 21.85094 121.12642 35894 ft 457 kts 206°
2026-04-22 13:08 21.79199 121.10074 35897 ft 457 kts 206°
2026-04-22 13:09 21.73333 121.07515 35895 ft 457 kts 206°
2026-04-22 13:09 21.67428 121.04949 35900 ft 457 kts 206°
2026-04-22 13:10 21.61512 121.02383 35906 ft 457 kts 205°
2026-04-22 13:10 21.55630 120.99841 35910 ft 458 kts 205°
2026-04-22 13:11 21.49707 120.97277 35912 ft 458 kts 205°
2026-04-22 13:11 21.43784 120.94709 35913 ft 458 kts 205°
2026-04-22 13:12 21.37903 120.92158 35914 ft 458 kts 205°
2026-04-22 13:12 21.31979 120.89597 35913 ft 458 kts 205°
2026-04-22 13:13 21.26049 120.87041 35917 ft 458 kts 205°
2026-04-22 13:13 21.20116 120.84485 35916 ft 459 kts 205°
2026-04-22 13:14 21.14232 120.81953 35921 ft 459 kts 205°
2026-04-22 13:14 21.08289 120.79398 35913 ft 459 kts 205°
2026-04-22 13:15 21.02349 120.76855 35917 ft 460 kts 202°
2026-04-22 13:15 20.96082 120.75489 35910 ft 466 kts 187°
2026-04-22 13:16 20.89595 120.74968 35905 ft 467 kts 187°
2026-04-22 13:16 20.83112 120.74436 35915 ft 467 kts 187°
2026-04-22 13:17 20.76621 120.73901 35915 ft 467 kts 187°
2026-04-22 13:17 20.70160 120.73367 35910 ft 467 kts 187°
2026-04-22 13:18 20.63697 120.72834 35910 ft 467 kts 187°
2026-04-22 13:18 20.57212 120.72303 35912 ft 467 kts 187°
2026-04-22 13:19 20.50713 120.71769 35916 ft 467 kts 187°
2026-04-22 13:19 20.44222 120.71238 35916 ft 467 kts 187°
2026-04-22 13:20 20.37737 120.70703 35915 ft 467 kts 187°
2026-04-22 13:20 20.31301 120.70177 35913 ft 467 kts 187°
2026-04-22 13:21 20.24808 120.69643 35918 ft 467 kts 187°
2026-04-22 13:21 20.18319 120.69112 35921 ft 467 kts 187°
2026-04-22 13:22 20.11824 120.68586 35923 ft 467 kts 187°
2026-04-22 13:22 20.05377 120.68051 35923 ft 467 kts 187°
2026-04-22 13:23 19.98883 120.67522 35925 ft 467 kts 187°
2026-04-22 13:23 19.92434 120.66999 35925 ft 467 kts 187°
2026-04-22 13:24 19.85944 120.66463 35928 ft 466 kts 187°
2026-04-22 13:24 19.79458 120.65928 35929 ft 466 kts 187°
2026-04-22 13:25 19.72978 120.65406 35929 ft 466 kts 187°
2026-04-22 13:25 19.66546 120.64886 35930 ft 466 kts 187°
2026-04-22 13:26 19.60066 120.64357 35932 ft 466 kts 187°
2026-04-22 13:26 19.53588 120.63831 35931 ft 466 kts 187°
2026-04-22 13:27 19.47142 120.63315 35932 ft 466 kts 186°
2026-04-22 13:27 19.40674 120.62790 35934 ft 466 kts 187°
2026-04-22 13:28 19.34199 120.62260 35932 ft 466 kts 187°
2026-04-22 13:28 19.27734 120.61734 35934 ft 466 kts 186°
2026-04-22 13:29 19.21266 120.61208 35928 ft 465 kts 186°
2026-04-22 13:29 19.14851 120.60691 35929 ft 465 kts 186°
2026-04-22 13:30 19.08396 120.60171 35924 ft 465 kts 186°
2026-04-22 13:30 19.01939 120.59646 35925 ft 465 kts 186°
2026-04-22 13:31 18.95492 120.59122 35921 ft 465 kts 186°
2026-04-22 13:31 18.89062 120.58611 35923 ft 465 kts 186°
2026-04-22 13:32 18.82614 120.58093 35923 ft 465 kts 186°
2026-04-22 13:32 18.76141 120.57579 35927 ft 465 kts 186°
2026-04-22 13:33 18.69720 120.57066 35927 ft 465 kts 186°
2026-04-22 13:33 18.63250 120.56540 35927 ft 465 kts 186°
2026-04-22 13:34 18.56789 120.56016 35926 ft 465 kts 186°
2026-04-22 13:34 18.50365 120.55501 35929 ft 465 kts 186°
2026-04-22 13:35 18.44986 120.55071 35933 ft 465 kts 186°
2026-04-22 13:35 18.38532 120.54552 35936 ft 465 kts 186°
2026-04-22 13:36 18.31014 120.53958 35941 ft 465 kts 186°
2026-04-22 13:36 18.25603 120.53529 35942 ft 465 kts 186°
2026-04-22 13:37 18.19185 120.53008 35942 ft 465 kts 186°
2026-04-22 13:37 18.11642 120.52268 35943 ft 465 kts 188°
2026-04-22 13:38 18.06290 120.51592 35942 ft 464 kts 188°
2026-04-22 13:38 17.96674 120.50373 35939 ft 465 kts 188°
2026-04-22 13:39 17.90234 120.49608 35937 ft 465 kts 187°
2026-04-22 13:39 17.83830 120.48864 35937 ft 465 kts 187°
2026-04-22 13:40 17.77388 120.48106 35940 ft 465 kts 187°
2026-04-22 13:40 17.70991 120.47352 35942 ft 465 kts 187°
2026-04-22 13:41 17.64547 120.46594 35942 ft 465 kts 187°
2026-04-22 13:41 17.58114 120.45827 35942 ft 465 kts 187°
2026-04-22 13:42 17.51668 120.45059 35947 ft 465 kts 187°
2026-04-22 13:42 17.45279 120.44310 35947 ft 465 kts 187°
2026-04-22 13:43 17.38846 120.43556 35947 ft 465 kts 187°
2026-04-22 13:43 17.32415 120.42800 35952 ft 465 kts 187°
2026-04-22 13:44 17.25970 120.42044 35952 ft 465 kts 187°
2026-04-22 13:44 17.19570 120.41296 35955 ft 465 kts 187°
2026-04-22 13:45 17.13130 120.40541 35952 ft 465 kts 187°
2026-04-22 13:45 17.06739 120.39784 35953 ft 464 kts 187°
2026-04-22 13:46 17.00296 120.39017 35957 ft 464 kts 187°
2026-04-22 13:46 16.96010 120.38516 35958 ft 464 kts 187°
2026-04-22 13:47 16.89716 120.37786 35962 ft 464 kts 187°
2026-04-22 13:47 16.83280 120.37026 35962 ft 464 kts 187°
2026-04-22 13:48 16.76844 120.36268 35964 ft 464 kts 187°
2026-04-22 13:48 16.70450 120.35555 35961 ft 464 kts 186°
2026-04-22 13:49 16.63981 120.35088 35959 ft 464 kts 184°
2026-04-22 13:49 16.57558 120.34735 35958 ft 464 kts 184°
2026-04-22 13:50 16.51094 120.34339 35955 ft 464 kts 184°
2026-04-22 13:50 16.44673 120.33885 35954 ft 464 kts 185°
2026-04-22 13:51 16.38216 120.33428 35951 ft 464 kts 185°
2026-04-22 13:51 16.31803 120.32995 35949 ft 464 kts 184°
2026-04-22 13:52 16.25361 120.32559 35944 ft 463 kts 185°
2026-04-22 13:52 16.18904 120.32125 35941 ft 463 kts 185°
2026-04-22 13:53 16.12499 120.31688 35941 ft 463 kts 185°
2026-04-22 13:53 16.06057 120.31242 35937 ft 463 kts 185°
2026-04-22 13:54 15.99618 120.30799 35938 ft 464 kts 185°
2026-04-22 13:54 15.93165 120.30358 35939 ft 464 kts 184°
2026-04-22 13:55 15.86728 120.29933 35941 ft 463 kts 184°
2026-04-22 13:55 15.80311 120.29505 35943 ft 463 kts 184°
2026-04-22 13:56 15.73861 120.29065 35949 ft 463 kts 185°
2026-04-22 13:56 15.67408 120.28615 35954 ft 463 kts 184°
2026-04-22 13:57 15.61004 120.28180 35953 ft 463 kts 184°
2026-04-22 13:57 15.54550 120.27744 35953 ft 463 kts 184°
2026-04-22 13:58 15.48146 120.27311 35956 ft 463 kts 184°
2026-04-22 13:58 15.41813 120.26889 35955 ft 463 kts 184°
2026-04-22 13:59 15.35410 120.26453 35950 ft 463 kts 184°
2026-04-22 13:59 15.28976 120.26013 35946 ft 463 kts 184°
2026-04-22 14:00 15.22547 120.25575 35949 ft 463 kts 184°
2026-04-22 14:00 15.16095 120.25142 35948 ft 463 kts 184°
2026-04-22 14:01 15.09662 120.24715 35954 ft 463 kts 184°
2026-04-22 14:01 15.03272 120.24279 35957 ft 463 kts 185°
2026-04-22 14:02 14.96848 120.23832 35959 ft 462 kts 185°
2026-04-22 14:02 14.90414 120.23401 35960 ft 462 kts 184°
2026-04-22 14:03 14.84024 120.22986 35961 ft 462 kts 184°
2026-04-22 14:03 14.77586 120.22552 35958 ft 462 kts 185°
2026-04-22 14:04 14.71220 120.21920 35960 ft 461 kts 188°
2026-04-22 14:04 14.64859 120.21022 35957 ft 461 kts 189°
2026-04-22 14:05 14.58503 120.20107 35955 ft 460 kts 188°
2026-04-22 14:06 14.49003 120.18875 35950 ft 460 kts 188°
2026-04-22 14:06 14.42643 120.18068 35939 ft 460 kts 188°
2026-04-22 14:07 14.36312 120.17257 35936 ft 459 kts 188°
2026-04-22 14:07 14.29964 120.16436 35931 ft 459 kts 188°
2026-04-22 14:08 14.23615 120.15616 35935 ft 459 kts 188°
2026-04-22 14:08 14.17319 120.14801 35933 ft 458 kts 188°
2026-04-22 14:09 14.10991 120.13987 35933 ft 458 kts 188°
2026-04-22 14:09 14.04655 120.13180 35935 ft 458 kts 188°
2026-04-22 14:10 13.98322 120.12366 35933 ft 457 kts 188°
2026-04-22 14:10 13.92045 120.11556 35937 ft 457 kts 188°
2026-04-22 14:11 13.85717 120.10749 35936 ft 457 kts 188°
2026-04-22 14:11 13.79453 120.09681 35936 ft 456 kts 192°
2026-04-22 14:12 13.73276 120.08333 35937 ft 455 kts 193°
2026-04-22 14:12 13.67067 120.06971 35937 ft 455 kts 193°
2026-04-22 14:13 13.60886 120.05709 35933 ft 455 kts 192°
2026-04-22 14:13 13.54648 120.04477 35934 ft 455 kts 192°
2026-04-22 14:14 13.48454 120.03243 35934 ft 455 kts 192°
2026-04-22 14:14 13.42237 120.01986 35936 ft 454 kts 192°
2026-04-22 14:15 13.36024 120.00724 35935 ft 454 kts 192°
2026-04-22 14:15 13.29814 119.99472 35931 ft 454 kts 192°
2026-04-22 14:16 13.23649 119.98231 35935 ft 454 kts 192°
2026-04-22 14:16 13.17444 119.96980 35935 ft 454 kts 193°
2026-04-22 14:17 13.11233 119.95722 35936 ft 454 kts 193°
2026-04-22 14:17 13.05035 119.94474 35937 ft 453 kts 193°
2026-04-22 14:18 12.98877 119.93232 35937 ft 453 kts 193°
2026-04-22 14:18 12.92686 119.91991 35937 ft 453 kts 192°
2026-04-22 14:19 12.86495 119.90758 35934 ft 453 kts 193°
2026-04-22 14:19 12.80298 119.89515 35934 ft 453 kts 193°
2026-04-22 14:20 12.72064 119.87856 35939 ft 452 kts 193°
2026-04-22 14:20 12.65908 119.86622 35936 ft 452 kts 193°
2026-04-22 14:21 12.56680 119.84770 35937 ft 451 kts 193°
2026-04-22 14:22 12.47425 119.82907 35936 ft 451 kts 193°
2026-04-22 14:23 12.38168 119.81064 35939 ft 451 kts 193°
2026-04-22 14:23 12.32033 119.79839 35938 ft 451 kts 193°
2026-04-22 14:24 12.25873 119.78605 35939 ft 450 kts 193°
2026-04-22 14:24 12.19716 119.77375 35932 ft 450 kts 193°
2026-04-22 14:25 12.13591 119.76149 35937 ft 450 kts 193°
2026-04-22 14:25 12.07442 119.74913 35938 ft 450 kts 193°
2026-04-22 14:26 12.01275 119.73684 35938 ft 450 kts 193°
2026-04-22 14:26 11.95162 119.72469 35931 ft 449 kts 193°
2026-04-22 14:27 11.89007 119.71239 35939 ft 449 kts 193°
2026-04-22 14:27 11.82901 119.70025 35939 ft 449 kts 193°
2026-04-22 14:28 11.76752 119.68800 35937 ft 449 kts 193°
2026-04-22 14:28 11.70656 119.67411 35934 ft 446 kts 201°
2026-04-22 14:29 11.65163 119.64610 35933 ft 443 kts 211°
2026-04-22 14:29 11.59799 119.61463 35932 ft 444 kts 211°
2026-04-22 14:30 11.54461 119.58352 35931 ft 444 kts 211°
2026-04-22 14:30 11.49085 119.55226 35935 ft 444 kts 211°
2026-04-22 14:31 11.43709 119.52090 35937 ft 444 kts 211°
2026-04-22 14:31 11.38346 119.48962 35929 ft 444 kts 211°
2026-04-22 14:32 11.33004 119.45851 35933 ft 444 kts 211°
2026-04-22 14:32 11.27636 119.42721 35929 ft 444 kts 211°
2026-04-22 14:33 11.22262 119.39586 35925 ft 444 kts 211°
2026-04-22 14:33 11.16920 119.36480 35923 ft 444 kts 211°
2026-04-22 14:34 11.11533 119.33346 35931 ft 444 kts 211°
2026-04-22 14:34 11.06157 119.30213 35926 ft 444 kts 211°
2026-04-22 14:35 11.00814 119.27112 35926 ft 444 kts 211°
2026-04-22 14:35 10.95436 119.23990 35930 ft 445 kts 211°
2026-04-22 14:36 10.90046 119.20859 35927 ft 445 kts 211°
2026-04-22 14:36 10.84701 119.17756 35923 ft 445 kts 211°
2026-04-22 14:37 10.79323 119.14630 35925 ft 445 kts 211°
2026-04-22 14:37 10.73947 119.11511 35919 ft 445 kts 210°
2026-04-22 14:38 10.68565 119.08395 35918 ft 445 kts 210°
2026-04-22 14:38 10.63188 119.05277 35918 ft 445 kts 210°
2026-04-22 14:39 10.57805 119.02157 35917 ft 444 kts 210°
2026-04-22 14:39 10.52454 118.99052 35925 ft 444 kts 211°
2026-04-22 14:40 10.44390 118.94380 35922 ft 444 kts 210°
2026-04-22 14:40 10.39020 118.91279 35922 ft 444 kts 210°
2026-04-22 14:41 10.33683 118.88194 35920 ft 443 kts 210°
2026-04-22 14:41 10.28338 118.85106 35920 ft 443 kts 210°
2026-04-22 14:42 10.22968 118.82004 35924 ft 444 kts 210°
2026-04-22 14:42 10.17581 118.78897 35924 ft 444 kts 210°
2026-04-22 14:43 10.12240 118.75811 35916 ft 444 kts 210°
2026-04-22 14:43 10.06865 118.72702 35918 ft 444 kts 210°
2026-04-22 14:44 10.01479 118.69595 35922 ft 444 kts 210°
2026-04-22 14:44 9.96109 118.66495 35927 ft 444 kts 210°
2026-04-22 14:45 9.90771 118.63411 35928 ft 444 kts 210°
2026-04-22 14:45 9.85403 118.60314 35923 ft 444 kts 210°
2026-04-22 14:46 9.80059 118.57151 35923 ft 444 kts 211°
2026-04-22 14:46 9.74773 118.53901 35920 ft 444 kts 212°
2026-04-22 14:47 9.69521 118.50662 35934 ft 444 kts 212°
2026-04-22 14:47 9.64230 118.47430 35926 ft 444 kts 211°
2026-04-22 14:48 9.58919 118.44205 35925 ft 444 kts 211°
2026-04-22 14:48 9.53606 118.40979 35934 ft 444 kts 211°
2026-04-22 14:49 9.48336 118.37766 35933 ft 444 kts 211°
2026-04-22 14:49 9.43037 118.34544 35936 ft 444 kts 211°
2026-04-22 14:50 9.37754 118.31335 35931 ft 444 kts 211°
2026-04-22 14:50 9.32446 118.28117 35931 ft 444 kts 211°
2026-04-22 14:51 9.27137 118.24900 35933 ft 444 kts 211°
2026-04-22 14:51 9.21831 118.21672 35925 ft 445 kts 211°
2026-04-22 14:52 9.16519 118.18438 35930 ft 445 kts 211°
2026-04-22 14:52 9.11233 118.15234 35922 ft 445 kts 211°
2026-04-22 14:53 9.05899 118.12004 35928 ft 445 kts 211°
2026-04-22 14:53 9.00581 118.08773 35929 ft 445 kts 211°
2026-04-22 14:54 8.95261 118.05544 35924 ft 446 kts 211°
2026-04-22 14:54 8.89971 118.02342 35931 ft 446 kts 211°
2026-04-22 14:55 8.84632 117.99113 35930 ft 446 kts 211°
2026-04-22 14:55 8.79303 117.95883 35930 ft 446 kts 211°
2026-04-22 14:56 8.73966 117.92654 35922 ft 446 kts 211°
2026-04-22 14:56 8.68661 117.89442 35919 ft 447 kts 211°
2026-04-22 14:57 8.63314 117.86215 35928 ft 447 kts 211°
2026-04-22 14:57 8.57967 117.82987 35922 ft 447 kts 211°
2026-04-22 14:58 8.52654 117.79767 35925 ft 447 kts 211°
2026-04-22 14:58 8.47292 117.76530 35917 ft 448 kts 211°
2026-04-22 14:59 8.41930 117.73294 35918 ft 448 kts 211°
2026-04-22 14:59 8.36613 117.70079 35920 ft 448 kts 211°
2026-04-22 15:00 8.31253 117.66840 35915 ft 448 kts 211°
2026-04-22 15:00 8.25896 117.63606 35921 ft 448 kts 211°
2026-04-22 15:01 8.20531 117.60370 35915 ft 449 kts 211°
2026-04-22 15:01 8.15191 117.57153 35914 ft 449 kts 211°
2026-04-22 15:02 8.09823 117.53913 35918 ft 449 kts 211°
2026-04-22 15:02 8.04489 117.50700 35914 ft 449 kts 210°
2026-04-22 15:03 7.99116 117.47468 35915 ft 449 kts 210°
2026-04-22 15:03 7.93751 117.44237 35921 ft 449 kts 210°
2026-04-22 15:04 7.88405 117.41019 35917 ft 449 kts 210°
2026-04-22 15:04 7.83036 117.37791 35912 ft 449 kts 210°
2026-04-22 15:05 7.77667 117.34559 35916 ft 449 kts 210°
2026-04-22 15:05 7.73199 117.31865 35916 ft 449 kts 210°
2026-04-22 15:06 7.66986 117.28053 35915 ft 449 kts 213°
2026-04-22 15:06 7.62663 117.25052 35917 ft 449 kts 215°
2026-04-22 15:07 7.57629 117.21359 35914 ft 450 kts 215°
2026-04-22 15:07 7.52542 117.17677 35914 ft 450 kts 214°
2026-04-22 15:08 7.47407 117.14050 35920 ft 450 kts 214°
2026-04-22 15:08 7.42273 117.10445 35921 ft 450 kts 214°
2026-04-22 15:09 7.37169 117.06856 35916 ft 450 kts 214°
2026-04-22 15:09 7.32034 117.03233 35917 ft 450 kts 214°
2026-04-22 15:10 7.26902 116.99603 35913 ft 450 kts 214°
2026-04-22 15:10 7.21790 116.95992 35910 ft 451 kts 214°
2026-04-22 15:11 7.16646 116.92364 35907 ft 451 kts 214°
2026-04-22 15:11 7.11495 116.88726 35720 ft 452 kts 214°
2026-04-22 15:12 7.08920 116.86913 35485 ft 452 kts 214°
2026-04-22 15:12 7.06334 116.85095 35248 ft 452 kts 214°
2026-04-22 15:12 7.03754 116.83279 35015 ft 453 kts 214°
2026-04-22 15:12 7.01201 116.81480 34785 ft 454 kts 214°
2026-04-22 15:13 6.98608 116.79653 34563 ft 455 kts 214°
2026-04-22 15:13 6.96007 116.77824 34333 ft 456 kts 214°
2026-04-22 15:13 6.93397 116.75987 34112 ft 458 kts 214°
2026-04-22 15:13 6.90783 116.74146 33886 ft 459 kts 214°
2026-04-22 15:14 6.88158 116.72297 33631 ft 460 kts 214°
2026-04-22 15:14 6.85527 116.70446 33097 ft 462 kts 214°
2026-04-22 15:14 6.82894 116.68594 32131 ft 469 kts 214°
2026-04-22 15:14 6.80202 116.66701 31405 ft 470 kts 214°
2026-04-22 15:15 6.77529 116.64821 30882 ft 466 kts 214°
2026-04-22 15:15 6.74872 116.62950 30285 ft 464 kts 214°
2026-04-22 15:15 6.72254 116.61104 29678 ft 462 kts 214°
2026-04-22 15:15 6.69625 116.59253 29075 ft 458 kts 214°
2026-04-22 15:16 6.67019 116.57419 28491 ft 454 kts 214°
2026-04-22 15:16 6.64433 116.55601 27923 ft 450 kts 214°
2026-04-22 15:16 6.61866 116.53795 27342 ft 447 kts 214°
2026-04-22 15:16 6.59388 116.51990 26767 ft 444 kts 218°
2026-04-22 15:17 6.57179 116.49825 26213 ft 443 kts 229°
2026-04-22 15:17 6.55215 116.47439 25641 ft 441 kts 229°
2026-04-22 15:17 6.53263 116.45061 25099 ft 438 kts 229°
2026-04-22 15:17 6.51322 116.42703 24554 ft 436 kts 229°
2026-04-22 15:18 6.49391 116.40363 24031 ft 433 kts 229°
2026-04-22 15:18 6.47508 116.38046 23522 ft 432 kts 232°
2026-04-22 15:18 6.45871 116.35521 22966 ft 429 kts 237°
2026-04-22 15:18 6.44297 116.32976 22462 ft 425 kts 237°
2026-04-22 15:19 6.42744 116.30460 21967 ft 421 kts 237°
2026-04-22 15:19 6.41202 116.27961 21466 ft 418 kts 237°
2026-04-22 15:19 6.39672 116.25483 20970 ft 415 kts 237°
2026-04-22 15:19 6.38175 116.23057 20461 ft 413 kts 237°
2026-04-22 15:20 6.36664 116.20606 19944 ft 411 kts 237°
2026-04-22 15:20 6.35155 116.18163 19410 ft 409 kts 237°
2026-04-22 15:20 6.33652 116.15732 18874 ft 408 kts 237°
2026-04-22 15:20 6.32157 116.13313 18325 ft 407 kts 237°
2026-04-22 15:21 6.30666 116.10899 17765 ft 404 kts 237°
2026-04-22 15:21 6.29015 116.08639 17206 ft 400 kts 226°
2026-04-22 15:21 6.26941 116.06809 16666 ft 395 kts 214°
2026-04-22 15:21 6.24584 116.05507 16199 ft 388 kts 202°
2026-04-22 15:22 6.22115 116.04467 15441 ft 380 kts 202°
2026-04-22 15:22 6.19708 116.03449 14819 ft 367 kts 202°
2026-04-22 15:22 6.17392 116.02462 14249 ft 356 kts 202°
2026-04-22 15:22 6.15122 116.01494 13713 ft 351 kts 202°
2026-04-22 15:23 6.12880 116.00540 13124 ft 348 kts 202°
2026-04-22 15:23 6.10713 115.99619 12590 ft 336 kts 202°
2026-04-22 15:23 6.08601 115.98723 12198 ft 322 kts 202°
2026-04-22 15:23 6.06564 115.97859 11717 ft 312 kts 202°
2026-04-22 15:24 6.04583 115.97020 11243 ft 305 kts 202°
2026-04-22 15:24 6.02654 115.96202 10776 ft 298 kts 202°
2026-04-22 15:24 6.00767 115.95400 10421 ft 288 kts 202°
2026-04-22 15:24 5.98985 115.94641 10353 ft 270 kts 202°
2026-04-22 15:25 5.97300 115.93926 10235 ft 262 kts 202°
2026-04-22 15:25 5.95645 115.93224 10134 ft 255 kts 202°
2026-04-22 15:25 5.94033 115.92540 10024 ft 249 kts 202°
2026-04-22 15:25 5.92423 115.91859 9620 ft 256 kts 202°
2026-04-22 15:26 5.90755 115.91152 9090 ft 261 kts 202°
2026-04-22 15:26 5.89081 115.90444 8607 ft 260 kts 202°
2026-04-22 15:26 5.87423 115.89741 8144 ft 257 kts 202°
2026-04-22 15:26 5.85774 115.89040 7672 ft 255 kts 202°
2026-04-22 15:27 5.84166 115.88356 7222 ft 253 kts 202°
2026-04-22 15:27 5.82543 115.87668 6762 ft 251 kts 201°
2026-04-22 15:27 5.80940 115.86992 6314 ft 249 kts 201°
2026-04-22 15:27 5.79347 115.86321 5842 ft 247 kts 200°
2026-04-22 15:28 5.77687 115.85995 5391 ft 241 kts 176°
2026-04-22 15:28 5.76110 115.86391 4969 ft 236 kts 151°
2026-04-22 15:28 5.74879 115.87396 4801 ft 222 kts 128°
2026-04-22 15:28 5.74162 115.88719 4744 ft 211 kts 112°
2026-04-22 15:29 5.73628 115.90061 4670 ft 204 kts 112°
2026-04-22 15:29 5.73102 115.91367 4585 ft 196 kts 112°
2026-04-22 15:29 5.72609 115.92593 4475 ft 182 kts 113°
2026-04-22 15:30 5.72427 115.95045 3944 ft 180 kts 71°
2026-04-22 15:30 5.73053 115.96092 3777 ft 176 kts 48°
2026-04-22 15:30 5.74028 115.96807 3591 ft 173 kts 25°
2026-04-22 15:30 5.75123 115.97270 3385 ft 167 kts 24°
2026-04-22 15:31 5.76176 115.97714 3198 ft 161 kts 23°
2026-04-22 15:31 5.77188 115.98141 2993 ft 155 kts 23°
2026-04-22 15:31 5.78181 115.98560 2788 ft 154 kts 23°
2026-04-22 15:31 5.79154 115.98970 2591 ft 153 kts 23°
2026-04-22 15:32 5.80134 115.99384 2396 ft 152 kts 23°
2026-04-22 15:32 5.81112 115.99797 2199 ft 151 kts 23°
2026-04-22 15:32 5.82082 116.00206 2006 ft 151 kts 23°
2026-04-22 15:32 5.83053 116.00616 1821 ft 150 kts 23°
2026-04-22 15:33 5.84017 116.01023 1650 ft 150 kts 24°
2026-04-22 15:33 5.84979 116.01429 1465 ft 149 kts 24°
2026-04-22 15:33 5.85937 116.01833 1281 ft 149 kts 24°
2026-04-22 15:33 5.86878 116.02230 1095 ft 148 kts 24°
2026-04-22 15:34 5.87830 116.02632 898 ft 148 kts 24°
2026-04-22 15:34 5.88780 116.03033 695 ft 147 kts 24°
2026-04-22 15:34 5.89723 116.03431 510 ft 146 kts 24°
2026-04-22 15:34 5.90660 116.03826 308 ft 145 kts 23°
2026-04-22 15:35 5.91278 116.04086 189 ft 144 kts 24°
2026-04-22 15:35 5.92495 116.04604 22 ft 129 kts 23°
2026-04-22 15:35 5.93156 116.04882 21 ft 80 kts 23°
2026-04-22 15:35 5.93509 116.05030 23 ft 30 kts 23°
2026-04-22 15:36 5.93645 116.05088 23 ft 17 kts 23°
2026-04-22 15:36 5.93696 116.05176 22 ft 15 kts 95°
2026-04-22 15:36 5.93631 116.05249 21 ft 14 kts 163°
2026-04-22 15:36 5.93545 116.05231 23 ft 11 kts 202°
2026-04-22 15:37 5.93469 116.05199 22 ft 13 kts 202°
2026-04-22 15:37 5.93380 116.05162 22 ft 15 kts 203°
2026-04-22 15:37 5.93274 116.05117 23 ft 18 kts 202°
2026-04-22 15:37 5.93152 116.05066 22 ft 20 kts 203°
2026-04-22 15:38 5.93024 116.05012 22 ft 17 kts 202°
2026-04-22 15:38 5.92792 116.04913 21 ft 15 kts 202°
2026-04-22 15:38 5.92684 116.04868 21 ft 18 kts 202°
2026-04-22 15:39 5.92579 116.04823 21 ft 18 kts 202°
2026-04-22 15:39 5.92469 116.04777 22 ft 10 kts 202°
2026-04-22 15:39 5.92402 116.04793 22 ft 12 kts 121°
2026-04-22 15:39 5.92355 116.04844 22 ft 11 kts 158°
2026-04-22 15:40 5.92296 116.04870 22 ft 5 kts 138°
2026-04-22 15:40 5.92306 116.04901 22 ft 5 kts 65°
2026-04-22 15:40 5.92321 116.04936 22 ft 5 kts 67°
2026-04-22 15:40 5.92328 116.04952 22 ft 2 kts 67°
2026-04-22 15:41 5.92329 116.04953 22 ft 0 kts 67°